Miscellaneous Local Product
Issued by NWS North Platte, NE

Home | Current Version | Previous Version | Graphics & Text | Print | Product List | Glossary On
Versions: 1 2 3 4 5 6 7 8 9 10 11 12 13 14 15 16 17 18 19 20 21 22 23 24 25 26 27 28 29 30 31 32 33 34 35 36 37 38 39 40 41 42 43 44 45 46 47 48 49 50
352
AXUS43 KLBF 290810
MISLBF


WESTERN AND NORTH CENTRAL NEBRASKA HOURLY WEATHER ROUNDUP
NATIONAL WEATHER SERVICE NORTH PLATTE NE
300 AM CDT SUN MAY 29 2016

NOTE: "FAIR" INDICATES FEW OR NO CLOUDS BELOW 12,000 FEET WITH NO
SIGNIFICANT WEATHER AND/OR OBSTRUCTIONS TO VISIBILITY.

NOTE: STATIONS NOT REPORTING VARIABLES SUCH AS SKY/WEATHER OR
PRESSURE ARE PROVIDED BY RAWS AND APRS NETWORKS AND ARE NOT UNDER
NATIONAL WEATHER SERVICE QUALITY CONTROL.

...OBSERVATIONS IN AND NEAR THE EASTERN PANHANDLE OF NEBRASKA...

CITY           SKY/WX    TMP DP  RH WIND       PRES   REMARKS
PINE RIDGE     CLEAR     41  39  93 CALM      30.07S
CHADRON        PTCLDY    39  38  96 CALM      30.07S FOG
ALLIANCE       CLEAR     42  41  96 CALM      30.08S
SIDNEY         CLEAR     44  42  93 S7        30.11S
CRESCENT LAKE    N/A     49  48  98 CALM        N/A
BIG SPRINGS      N/A     52  49  90 CALM        N/A
$$

...OBSERVATIONS IN NORTHERN NEBRASKA AND FAR SOUTHERN SOUTH DAKOTA...

CITY           SKY/WX    TMP DP  RH WIND       PRES   REMARKS
WINNER         FAIR      58  52  80 SW6       30.00S
VALENTINE      CLEAR     53  49  86 SW8       30.04S
THEDFORD       CLEAR     51  49  95 W3        30.05S
AINSWORTH      CLOUDY    57  55  91 NW6       30.04R
O`NEILL        MOCLDY    60  57  89 CALM      30.00S
ORD            CLEAR     56  54  93 N5        30.00S
BROKEN BOW     PTCLDY    56  52  86 SW3       30.02R
BUTTE            N/A     59  56  91 SW3         N/A
CHAMBERS         N/A     60  58  92 W3          N/A
EWING            N/A     56  55  97 CALM        N/A
$$

...OBSERVATIONS IN SOUTHWEST NEBRASKA AND FAR NORTHEAST COLORADO...

CITY           SKY/WX    TMP DP  RH WIND       PRES   REMARKS
WRAY           FAIR      55  48  76 MISG      30.10F
IMPERIAL       CLEAR     54  51  90 CALM      30.07S
OGALLALA       CLEAR     48  46  93 CALM      30.08R
NORTH PLATTE   CLOUDY    51  49  92 NW3       30.06S
MCCOOK         CLOUDY    58  51  78 SE9       30.04F
LEXINGTON      PTCLDY    55  51  87 S3        30.03F
PAXTON           N/A     55  51  85 CALM        N/A
STAPLETON        N/A     51  48  91 CALM        N/A
GOTHENBURG       N/A     59  48  67 CALM        N/A
CALLAWAY         N/A     56  51  85 NW7         N/A
$$

...OBSERVATIONS IN CENTRAL LINCOLN COUNTY AREA...

CITY           SKY/WX    TMP DP  RH WIND       PRES   REMARKS
N.P. AIRPORT   CLOUDY    51  49  92 NW3       30.06S
N.P. DOWNTOWN    N/A     53  51  94 CALM        N/A
N.P. SOUTHEAST   N/A     54  52  93 CALM        N/A
N.P. HILLCREST   N/A     55  50  83 NW3         N/A
$$

...SOME OBSERVATIONS FROM AROUND THE REGION...

CITY           SKY/WX    TMP DP  RH WIND       PRES   REMARKS
DENVER         CLEAR     50  43  77 SW9       30.15S
LARAMIE        CLOUDY    41  35  79 S7        30.20R
CHEYENNE       CLEAR     47  37  68 W6        30.16S
SCOTTSBLUFF    MOCLDY    49  44  83 SE8       30.08F
RAPID CITY     CLEAR     50  45  83 W7        30.05R
BISMARCK       CLEAR     52  51  97 W5        29.96S
PIERRE         PTCLDY    55  52  89 W6        29.97S
SIOUX FALLS    CLEAR     56  54  93 CALM      29.95S
OMAHA          CLEAR     59  54  83 CALM      29.99S
GRAND ISLAND   PTCLDY    60  57  89 CALM      30.02R
KANSAS CITY    CLEAR     61  58  90 S6        30.02S
WICHITA        CLEAR     65  58  78 E3        30.05R
OKLAHOMA CITY  CLOUDY    70  69  97 S5        30.03S
DALLAS         CLOUDY    78  72  81 SE5       30.02S
AMARILLO       CLEAR     57  49  74 SE12      30.07F
DODGE CITY     CLEAR     58  52  80 SE3       30.08R
HAYS           CLEAR     57  48  72 SW3       30.05S
GOODLAND       MOCLDY    56  50  80 S10       30.08F
$$




USA.gov is the U.S. government's official web portal to all federal, state and local government web resources and services.